Change the Weather History Date:

Thursday, March 3, 2011

  Actual Average Record
Temperature  
Mean Temperature 70 °F -  
Max Temperature 78 °F 81 °F 89 °F (2008)
Min Temperature 63 °F 63 °F 55 °F (1997)
Cooling Degree Days 6    
Growing Degree Days 20 (Base 50)    
Moisture  
Dew Point 48 °F    
Average Humidity 49    
Maximum Humidity 72    
Minimum Humidity 21    
Precipitation  
Precipitation 0.00 in 0.02 in - ()
Sea Level Pressure  
Sea Level Pressure 30.02 in    
Wind  
Wind Speed 12 mph ()    
Max Wind Speed 20 mph    
Max Gust Speed 24 mph    
Visibility 6.8 miles    
Events      
Averages and records for this station are not official NWS values.
T = Trace of Precipitation, MM = Missing Value Source: Averaged Metar Reports

Daily Weather History Graph

Daily Weather History Graph

Search for Another Location

Airport or City:

Trip Planner

Search our weather history database for the weather conditions in past years. The results will help you decide how hot, cold, wet, or windy it might be!

Date:

Astronomy

Mar. 03, 2011 Rise Set
Actual Time 5:55 AM AST 5:36 PM AST
Civil Twilight 5:32 AM AST 5:59 PM AST
Nautical Twilight 5:05 AM AST 6:26 PM AST
Astronomical Twilight 4:39 AM AST 6:52 PM AST
Moon 4:45 AM AST (3/3) 4:29 PM AST (3/3)
Length of Visible Light 12h 27m
Length of Day
11h 41m
Waning Crescent, 2% of the Moon is Illuminated
Mar 3
Waning Crescent
Mar 4
New
Mar 13
First Quarter
Mar 19
Full
Mar 26
Last Quarter

Hourly Weather History & Observations

Time (AST) Temp. Dew Point Humidity Pressure Visibility Wind Dir Wind Speed Gust Speed Precip Events Conditions
12:00 AM 64.4 °F 51.8 °F 64% 30.01 in - NW 11.5 mph - N/A   Clear
12:30 AM 64.4 °F 50.0 °F 59% 30.01 in - NW 12.7 mph - N/A   Clear
1:00 AM 64.4 °F 51.8 °F 64% 30.01 in - NW 11.5 mph - N/A   Clear
1:30 AM 64.4 °F 50.0 °F 59% 30.01 in - NW 10.4 mph - N/A   Clear
2:00 AM 64.4 °F 50.0 °F 59% 29.98 in - NW 11.5 mph - N/A   Clear
2:30 AM 64.4 °F 51.8 °F 64% 29.98 in - NW 10.4 mph - N/A   Clear
3:00 AM 64 °F 51 °F 53% 29.99 in 7 mi NW 11.5 mph - -  
4:00 AM 64.4 °F 51.8 °F 64% 29.98 in - NW 11.5 mph - N/A   Clear
4:30 AM 60.8 °F 51.8 °F 72% 29.98 in - NW 12.7 mph - N/A   Clear
5:00 AM 64.4 °F 51.8 °F 64% 30.01 in - NW 11.5 mph - N/A   Clear
5:30 AM 64.4 °F 50.0 °F 59% 30.01 in - NW 11.5 mph - N/A   Clear
6:00 AM 64.4 °F 51.8 °F 64% 30.01 in - NW 10.4 mph - N/A   Clear
6:30 AM 64.4 °F 51.8 °F 64% 30.04 in - NW 10.4 mph - N/A   Clear
7:00 AM 64.4 °F 51.8 °F 64% 30.04 in - NW 11.5 mph - N/A   Clear
7:30 AM 66.2 °F 51.8 °F 60% 30.04 in 5.6 mi NW 10.4 mph - N/A   Unknown
8:00 AM 68.0 °F 51.8 °F 56% 30.04 in 5.6 mi NW 13.8 mph - N/A   Unknown
8:30 AM 68.0 °F 53.6 °F 60% 30.06 in 5.6 mi NW 15.0 mph - N/A   Unknown
9:00 AM 70 °F 52 °F 43% 30.07 in 6 mi NNW 16.1 mph - -   Widespread Dust
9:00 AM 69.8 °F 51.8 °F 53% 30.06 in 5.6 mi NNW 16.1 mph - N/A   Unknown
9:30 AM 71.6 °F 46.4 °F 41% 30.06 in 5.6 mi NNW 18.4 mph - N/A   Unknown
10:00 AM 73.4 °F 44.6 °F 36% 30.06 in - NW 17.3 mph - N/A   Clear
10:30 AM 73.4 °F 44.6 °F 36% 30.06 in - NNW 19.6 mph - N/A   Clear
11:00 AM 75.2 °F 42.8 °F 31% 30.04 in - NNW 15.0 mph - N/A   Clear
11:30 AM 75.2 °F 44.6 °F 34% 30.04 in - NNW 16.1 mph - N/A   Clear
12:00 PM 75.2 °F 44.6 °F 34% 30.04 in - NNW 15.0 mph - N/A   Clear
12:30 PM 75.2 °F 44.6 °F 34% 30.01 in - NNW 18.4 mph - N/A   Clear
1:00 PM 75.2 °F 44.6 °F 34% 30.01 in - NNW 18.4 mph - N/A   Clear
1:30 PM 77.0 °F 46.4 °F 34% 30.01 in - NNW 19.6 mph - N/A   Clear
2:00 PM 75.2 °F 44.6 °F 34% 29.98 in - NNW 16.1 mph - N/A   Clear
2:30 PM 75.2 °F 44.6 °F 34% 29.98 in - NNW 17.3 mph - N/A   Clear
3:00 PM 75 °F 43 °F 21% 29.99 in 10 mi NNW 15.0 mph - -   Clear
3:00 PM 75.2 °F 42.8 °F 31% 29.98 in - NNW 15.0 mph - N/A   Clear
3:30 PM 75.2 °F 44.6 °F 34% 29.98 in - NNW 16.1 mph - N/A   Clear
4:00 PM 73.4 °F 42.8 °F 33% 29.98 in - NW 16.1 mph - N/A   Clear
4:30 PM 73.4 °F 41.0 °F 31% 30.01 in - NNW 15.0 mph - N/A   Clear
5:00 PM 71.6 °F 44.6 °F 38% 30.01 in - NNW 16.1 mph - N/A   Clear
5:30 PM 69.8 °F 44.6 °F 40% 30.01 in - NNW 16.1 mph - N/A   Clear
6:00 PM 69.8 °F 48.2 °F 46% 30.01 in - NNW 15.0 mph - N/A   Clear
6:30 PM 68.0 °F 48.2 °F 49% 30.01 in - NW 16.1 mph - N/A   Clear
7:00 PM 68.0 °F 50.0 °F 52% 30.04 in - NNW 12.7 mph - N/A   Clear
7:30 PM 66.2 °F 50.0 °F 56% 30.04 in - NW 11.5 mph - N/A   Clear
8:00 PM 66.2 °F 53.6 °F 64% 30.04 in - NW 11.5 mph - N/A   Clear
8:30 PM 66.2 °F 50.0 °F 56% 30.04 in - NW 12.7 mph - N/A   Clear
9:00 PM 66 °F 50 °F 47% 30.05 in 10 mi NW 12.7 mph - -  
9:00 PM 66.2 °F 50.0 °F 56% 30.04 in - NW 12.7 mph - N/A   Clear
9:30 PM 66.2 °F 50.0 °F 56% 30.04 in - NW 12.7 mph - N/A   Clear
10:00 PM 66.2 °F 48.2 °F 52% 30.04 in - NW 11.5 mph 24.2 mph N/A   Clear
10:30 PM 64.4 °F 48.2 °F 56% 30.04 in - NW 10.4 mph - N/A   Clear
11:00 PM 64.4 °F 50.0 °F 59% 30.04 in - NW 10.4 mph - N/A   Clear
11:30 PM 64.4 °F 50.0 °F 59% 30.01 in - NW 10.4 mph - N/A   Clear